BREEZE-M DEB, 38584

Orbit data source: Space-Track

BREEZE-M DEB, 38584 is space debris in HEO originally from a launch on Fri, 14 Mar 2008 UTC launched from the Tyuratam Missile And Space Complex (TTMTR). Debris objects in space refer to the collection of defunct objects orbiting the Earth. Examples of debris include non-operational satellites, rocket bodies, and fragments generated from explosions, collisions, or faulty payload assembly.

Loading next visibility...
Identifier
38584, 2008-011AF
Orbit
HEO
Country
Flag of CISCIS
Related business
Manufacturer
Unknown
Mission
Spacecraft
Bus & Motor
Unknown
Mass
Unknown
Launch date (UTC)
2008-03-14 (18 years ago)
Launch vehicle
Unknown
Launch site
Tyuratam Missile And Space Complex (TTMTR)
Object type
Payload
Rocket body
Debris
Shape & HBR
Unknown shape, 0.2 m
Radar Cross Section
Medium (>0.1 m² and <1 m²)

Expand to show TLE details & history
Last TLE update: 9 months ago

TLE from 9 months ago
0 BREEZE-M DEB
1 38584U 08011AF  25279.36633344 -.00000418  00000-0 -10913-1 0  9995
2 38584  48.7282  28.8012 6399056 240.3775  63.3943  3.06507606123016
Epoch: 2025-10-06T08:47Z
TLE epoch observation values (Epoch: 2025-10-06T08:47:31.209Z)
Latitude
12.73392°
Longitude
-106.94721°
Altitude
15,767.16 km
Speed
4.011 km/s
True Right ascension
02h 40m 48s
True Declination
12° 42' 37"
Sunlit
Object was in daylight at epoch
Visualization orbit readout
Latitude
Unknown
Longitude
Unknown
Altitude
Unknown
Speed
Unknown
Apparent Right ascension
Unknown
Apparent Declination
Unknown
Sunlit
N/A
Visualization observer readout
Local Sidereal Time
23:09:08
Azimuth
Unknown
Elevation
Unknown
Doppler factor
Unknown
Orbital elements
Apogee altitude
26,452.263 km
Perigee altitude
830.841 km
Semi-major axis
20,019.689 km
Eccentricity
0.63991
Inclination
48.7282°
RAAN
28.8012°
Arg. of periapsis
240.3775°
True anomaly
136.75873°
Mean anomaly
63.3943°
Eccentric anomaly
99.55007°
Mean motion
0.76623 °/min
Orbital period
469.83 mins
BSTAR
-0.010913
Loading maneuver chart data...
Computing Atmospheric mass density...
Loading historical data...
Loading historical data...
Loading historical data...
Loading historical data...
Loading historical data...
Loading historical data...
Loading historical data...

Documentation

Showing up to 5 results
|